RADUGA-1 4 [-]

Last updated on Aug. 14, 2020, 5:30 a.m. UTC

1 25642U 99010A   20225.95164433 -.00000031  00000-0  00000-0 0  9999
2 25642  14.9161  19.7052 0002298 284.6864  64.7653  1.00352208 78542
UTC
Height (km)
Latitude
Longitude
Inclination
Orbital Period
UTC large
Height (km)
Speed (km/s)
/
Latitude / Longitude
Inclination (degrees)
Orbital Period (minutes)
Azimuth
Elevation
Range (km)
Doppler Factor
iOS Compass Heading
iOS Angle

Next 30 passes for location: Hong Kong

Rise time Rise Azimuth (degrees) Set time Set Azimuth (degrees) Duration Max altitude (degrees)

No matching passes for this satellites